• In Österreich
  • Länderverzeichnis
  • Für 7 Tage
  • Wassertemperatur
  • Satellitenkarten
  • Wetterkarte
  • News
  • Widgets
  • user-avatar
    Anmelden

    Stündliche Wetter Kyrdshali

    Heute, 25 Februar, Sonntag

    Zeit Temperatur Niederschläge Wind Luftdruck Luftfeuchtigkeit
    00:00 +2°C° 0,2 mm 3 m/S 721 mmHg 88%
    01:00 +2°C° 0,2 mm 3 m/S 722 mmHg 89%
    02:00 +2°C° 0 mm 3 m/S 722 mmHg 89%
    03:00 +1°C° 0,1 mm 3 m/S 722 mmHg 89%
    04:00 +1°C° 0,1 mm 3 m/S 722 mmHg 88%
    05:00 +1°C° 0,1 mm 3 m/S 722 mmHg 88%
    06:00 +1°C° 0,1 mm 3 m/S 723 mmHg 87%
    07:00 0°C° 0,1 mm 3 m/S 723 mmHg 86%
    08:00 0°C° 0 mm 3 m/S 723 mmHg 85%
    09:00 0°C° 0,1 mm 3 m/S 724 mmHg 82%
    10:00 0°C° 0,1 mm 3 m/S 724 mmHg 80%
    11:00 -1°C° 0,1 mm 4 m/S 724 mmHg 77%
    12:00 0°C° 0,1 mm 4 m/S 724 mmHg 76%
    13:00 0°C° 0,1 mm 4 m/S 724 mmHg 74%
    14:00 0°C° 0 mm 4 m/S 724 mmHg 73%
    15:00 0°C° 0 mm 4 m/S 724 mmHg 74%
    16:00 0°C° 0 mm 4 m/S 724 mmHg 75%
    17:00 -1°C° 0 mm 4 m/S 724 mmHg 76%
    18:00 -1°C° 0,1 mm 4 m/S 724 mmHg 80%
    19:00 -2°C° 0,1 mm 4 m/S 724 mmHg 83%
    20:00 -2°C° 0,1 mm 4 m/S 724 mmHg 86%
    21:00 -2°C° 0,2 mm 4 m/S 723 mmHg 87%
    22:00 -3°C° 0,2 mm 4 m/S 723 mmHg 88%
    23:00 -3°C° 0,2 mm 4 m/S 723 mmHg 89%

    Morgen, 26 Februar, Montag

    Zeit Temperatur Niederschläge Wind Luftdruck Luftfeuchtigkeit
    00:00 -3°C° 0,2 mm 4 m/S 723 mmHg 89%
    01:00 -3°C° 0,2 mm 4 m/S 722 mmHg 89%
    02:00 -3°C° 0,2 mm 4 m/S 722 mmHg 90%
    03:00 -2°C° 0,4 mm 4 m/S 721 mmHg 90%
    04:00 -2°C° 0,4 mm 5 m/S 721 mmHg 90%
    05:00 -3°C° 0,4 mm 6 m/S 720 mmHg 91%
    06:00 -3°C° 0,9 mm 6 m/S 720 mmHg 91%
    07:00 -3°C° 0,9 mm 6 m/S 720 mmHg 91%
    08:00 -3°C° 0,9 mm 6 m/S 719 mmHg 92%
    09:00 -3°C° 1,3 mm 7 m/S 719 mmHg 92%
    10:00 -3°C° 1,3 mm 7 m/S 718 mmHg 92%
    11:00 -4°C° 1,3 mm 8 m/S 718 mmHg 92%
    12:00 -4°C° 1,5 mm 8 m/S 717 mmHg 92%
    13:00 -4°C° 1,5 mm 8 m/S 717 mmHg 92%
    14:00 -4°C° 1,5 mm 9 m/S 716 mmHg 92%
    15:00 -4°C° 2 mm 8 m/S 716 mmHg 92%
    16:00 -5°C° 2 mm 8 m/S 716 mmHg 93%
    17:00 -5°C° 2 mm 8 m/S 715 mmHg 93%
    18:00 -4°C° 1,7 mm 7 m/S 716 mmHg 93%
    19:00 -6°C° 1,7 mm 7 m/S 716 mmHg 93%
    20:00 -6°C° 1,7 mm 7 m/S 716 mmHg 93%
    21:00 -7°C° 1 mm 7 m/S 716 mmHg 93%
    22:00 -6°C° 1 mm 6 m/S 716 mmHg 92%
    23:00 -6°C° 1 mm 6 m/S 716 mmHg 92%

    übermorgen, 27 Februar, Dienstag

    Zeit Temperatur Niederschläge Wind Luftdruck Luftfeuchtigkeit
    00:00 -6°C° 0,5 mm 6 m/S 717 mmHg 92%
    01:00 -7°C° 0,5 mm 5 m/S 717 mmHg 92%
    02:00 -7°C° 0,5 mm 4 m/S 717 mmHg 91%
    03:00 -7°C° 0,1 mm 4 m/S 717 mmHg 91%
    04:00 -6°C° 0,1 mm 3 m/S 718 mmHg 92%
    05:00 -6°C° 0,1 mm 2 m/S 718 mmHg 92%
    06:00 -5°C° 0,1 mm 2 m/S 718 mmHg 92%
    07:00 -5°C° 0,1 mm 2 m/S 719 mmHg 92%
    08:00 -5°C° 0,1 mm 2 m/S 719 mmHg 92%
    09:00 -4°C° 0,1 mm 2 m/S 719 mmHg 91%
    10:00 -4°C° 0,1 mm 2 m/S 719 mmHg 90%
    11:00 -3°C° 0,1 mm 2 m/S 720 mmHg 89%
    12:00 -3°C° 0,2 mm 2 m/S 720 mmHg 91%
    13:00 -2°C° 0,2 mm 2 m/S 719 mmHg 93%
    14:00 -2°C° 0,2 mm 2 m/S 719 mmHg 94%
    15:00 -2°C° 0,1 mm 2 m/S 720 mmHg 94%
    16:00 -2°C° 0,1 mm 2 m/S 720 mmHg 94%
    17:00 -2°C° 0,1 mm 2 m/S 720 mmHg 94%
    18:00 -3°C° 0 mm 2 m/S 721 mmHg 95%
    19:00 -2°C° 0 mm 1 m/S 721 mmHg 95%
    20:00 -3°C° 0 mm 1 m/S 722 mmHg 96%
    21:00 -3°C° 0 mm 1 m/S 722 mmHg 95%
    22:00 -3°C° 0 mm 1 m/S 722 mmHg 94%
    23:00 -6°C° 0 mm 2 m/S 723 mmHg 94%

    28 Februar, Mittwoch

    Zeit Temperatur Niederschläge Wind Luftdruck Luftfeuchtigkeit
    00:00 -6°C° 0 mm 2 m/S 723 mmHg 94%
    01:00 -6°C° 0 mm 2 m/S 723 mmHg 93%
    02:00 -6°C° 0 mm 2 m/S 722 mmHg 93%
    03:00 -6°C° 0,4 mm 2 m/S 722 mmHg 94%
    04:00 -5°C° 0,4 mm 2 m/S 722 mmHg 95%
    05:00 -5°C° 0,4 mm 2 m/S 722 mmHg 95%
    06:00 -6°C° 1 mm 3 m/S 722 mmHg 95%
    07:00 -6°C° 1 mm 3 m/S 722 mmHg 95%
    08:00 -6°C° 1 mm 3 m/S 722 mmHg 95%
    09:00 -6°C° 1,1 mm 3 m/S 722 mmHg 95%
    10:00 -5°C° 1,1 mm 4 m/S 721 mmHg 94%
    11:00 -5°C° 1,1 mm 4 m/S 721 mmHg 94%
    12:00 -5°C° 1,2 mm 4 m/S 721 mmHg 94%
    13:00 -5°C° 1,2 mm 4 m/S 721 mmHg 94%
    14:00 -4°C° 1,2 mm 4 m/S 721 mmHg 94%
    15:00 -4°C° 1 mm 4 m/S 721 mmHg 94%
    16:00 -4°C° 1 mm 4 m/S 722 mmHg 94%
    17:00 -4°C° 1 mm 3 m/S 723 mmHg 94%
    18:00 -5°C° 0,6 mm 3 m/S 723 mmHg 94%
    19:00 -5°C° 0,6 mm 3 m/S 724 mmHg 95%
    20:00 -6°C° 0,6 mm 3 m/S 725 mmHg 95%
    21:00 -6°C° 0,3 mm 3 m/S 726 mmHg 95%
    22:00 -7°C° 0,3 mm 3 m/S 726 mmHg 95%
    23:00 -8°C° 0,3 mm 3 m/S 727 mmHg 95%

    1 März, Donnerstag

    Zeit Temperatur Niederschläge Wind Luftdruck Luftfeuchtigkeit
    00:00 -8°C° 0,1 mm 3 m/S 727 mmHg 94%
    01:00 -8°C° 0,1 mm 2 m/S 728 mmHg 93%
    02:00 -9°C° 0,1 mm 2 m/S 728 mmHg 92%
    03:00 -9°C° 0 mm 2 m/S 728 mmHg 90%
    04:00 -10°C° 0 mm 2 m/S 728 mmHg 89%
    05:00 -12°C° 0 mm 2 m/S 729 mmHg 88%
    06:00 -12°C° 0 mm 2 m/S 729 mmHg 87%
    07:00 -12°C° 0 mm 2 m/S 729 mmHg 85%
    08:00 -12°C° 0 mm 2 m/S 729 mmHg 84%
    09:00 -8°C° 0 mm 1 m/S 730 mmHg 83%
    10:00 -6°C° 0 mm 1 m/S 730 mmHg 82%
    11:00 -3°C° 0 mm 1 m/S 730 mmHg 80%
    12:00 -2°C° 0 mm 1 m/S 730 mmHg 81%
    13:00 -2°C° 0 mm 1 m/S 729 mmHg 82%
    14:00 -3°C° 0 mm 2 m/S 729 mmHg 84%
    15:00 -1°C° 0 mm 1 m/S 729 mmHg 86%
    16:00 -1°C° 0 mm 1 m/S 729 mmHg 88%
    17:00 -1°C° 0 mm 1 m/S 728 mmHg 90%
    18:00 -3°C° 0 mm 1 m/S 729 mmHg 90%
    19:00 -4°C° 0 mm 1 m/S 729 mmHg 91%
    20:00 -7°C° 0 mm 1 m/S 729 mmHg 91%
    21:00 -7°C° 0 mm 1 m/S 729 mmHg 90%
    22:00 -7°C° 0 mm 1 m/S 728 mmHg 88%
    23:00 -7°C° 0 mm 1 m/S 728 mmHg 87%

    2 März, Freitag

    Zeit Temperatur Niederschläge Wind Luftdruck Luftfeuchtigkeit
    00:00 -8°C° 0 mm 1 m/S 728 mmHg 87%
    01:00 -8°C° 0 mm 1 m/S 728 mmHg 87%
    02:00 -8°C° 0 mm 1 m/S 727 mmHg 86%
    03:00 -7°C° 0 mm 1 m/S 727 mmHg 87%
    04:00 -7°C° 0 mm 1 m/S 726 mmHg 88%
    05:00 -7°C° 0 mm 1 m/S 726 mmHg 88%
    06:00 -6°C° 0 mm 1 m/S 726 mmHg 89%
    07:00 -4°C° 0 mm 1 m/S 726 mmHg 91%
    08:00 -3°C° 0 mm 1 m/S 726 mmHg 92%
    09:00 -2°C° 0,1 mm 1 m/S 726 mmHg 94%
    10:00 -1°C° 0,1 mm 1 m/S 726 mmHg 95%
    11:00 +1°C° 0,1 mm 1 m/S 725 mmHg 97%
    12:00 +1°C° 0,1 mm 1 m/S 725 mmHg 97%
    13:00 +2°C° 0,1 mm 1 m/S 725 mmHg 98%
    14:00 +2°C° 0,1 mm 1 m/S 724 mmHg 98%
    15:00 +2°C° 0,1 mm 1 m/S 724 mmHg 98%
    16:00 +2°C° 0,1 mm 1 m/S 724 mmHg 98%
    17:00 +2°C° 0,1 mm 1 m/S 723 mmHg 99%
    18:00 +2°C° 0,1 mm 1 m/S 723 mmHg 98%
    19:00 +2°C° 0,1 mm 1 m/S 723 mmHg 98%
    20:00 +2°C° 0,1 mm 1 m/S 723 mmHg 97%
    21:00 +2°C° 0,1 mm 1 m/S 723 mmHg 97%
    22:00 +2°C° 0,1 mm 1 m/S 723 mmHg 96%
    23:00 +2°C° 0,1 mm 1 m/S 722 mmHg 96%
    Mehr zeigen